Location: Tierra Monte Subdivision
(35.2092°N, 106.4864°W)
Time: 21:54:02
(UTC+00:00)

CZ-4B R/B - Pass Details

Date: 30 March 2020
Orbit: 391 x 466 km, 97.6° (Epoch: 24 May)

Event Time Altitude Azimuth Distance (km) Brightness Sun altitude
Exits shadow 10:57:56 28° 359° (N) 898 3.1 -23.8°
Drops below altitude 10° 10:59:44 10° 353° (N) 1,623 4.4 -23.5°
Sets 11:01:48 0° 351° (N) 2,507 5.4 -23.1°
